Location: Hopville
(44.8032°N, 123.1329°W)
Time: 17:15:20
(UTC+00:00)

Cosmos 2292 Rocket - Pass Details

Date: 24 January 2021
Orbit: 380 x 1450 km, 83.0° (Epoch: 28 February)

Event Time Altitude Azimuth Distance (km) Brightness Sun altitude
Rises 14:40:35 0° 354° (N) 2,268 6.2 -10.6°
Reaches altitude 10° 14:42:30 10° 358° (N) 1,418 5.2 -10.3°
Maximum altitude 14:45:27 66° 81° (E) 449 3.1 -9.8°
Drops below altitude 10° 14:48:45 10° 165° (SSE) 1,580 6.1 -9.2°
Sets 14:51:00 0° 168° (SSE) 2,565 7.2 -8.8°
